STARLINK-4393, 53470

Orbit data source: Space-Track

STARLINK-4393, 53470 is a payload satellite owned by SpaceX/Seattle (US) in SSO that was launched on Fri, 12 Aug 2022 UTC via an FALCON 9 launch vehicle from the Air Force Western Test Range (AFWTR). Payload-class satellites include a variety of spacecraft equipped with specific instruments for various scientific and technological missions. These include communications satellites like Starlink; space stations such as the ISS; scientific satellites like the Hubble; Earth observation satellites from companies like Planet Labs, Umbra, and HawkEye 360; GPS; miniature CubeSats for education and research; and military/defense satellites.

Loading next visibility...
Identifier
53470, 2022-099F
Orbit
SSO
Country
Flag of USUS
Related business
Manufacturer
SpaceX/Seattle
Mission
Operational Commercial Communications
Bus & Motor
STARLINK, Unknown motor
Mass
300 kg wet, ~275 kg dry
Launch date (UTC)
2022-08-12 (4 years ago)
Launch vehicle
FALCON 9
Launch site
Air Force Western Test Range (AFWTR)
Object type
Payload
Rocket body
Debris
Shape & HBR
Box + 1 Pan, 10.1 m
Radar Cross Section
13.562 m², Large (>1 m²)

Expand to show TLE details & history
Last TLE update: 12 hours ago

TLE from 12 hours ago
0 STARLINK-4393
1 53470U 22099F   26145.39980866 -.00002858  00000-0 -19409-3 0  9999
2 53470  97.4472 265.3275 0001992 132.7578 227.3817 15.05645393207514
Epoch: 2026-05-25T09:35Z
TLE epoch observation values (Epoch: 2026-05-25T09:35:43.468Z)
Latitude
-0.00001°
Longitude
-121.59177°
Altitude
553.53 km
Speed
7.584 km/s
True Right ascension
17h 41m 18s
True Declination
0° 00' 00"
Sunlit
Object was in full shadow at epoch
Visualization orbit readout
Latitude
Unknown
Longitude
Unknown
Altitude
Unknown
Speed
Unknown
Apparent Right ascension
Unknown
Apparent Declination
Unknown
Sunlit
N/A
Visualization observer readout
Local Sidereal Time
06:59:48
Azimuth
Unknown
Elevation
Unknown
Doppler factor
Unknown
Orbital elements
Apogee altitude
547.891 km
Perigee altitude
545.133 km
Semi-major axis
6,924.649 km
Eccentricity
0.0002
Inclination
97.4472°
RAAN
265.3275°
Arg. of periapsis
132.7578°
True anomaly
227.36491°
Mean anomaly
227.3817°
Eccentric anomaly
227.3733°
Mean motion
3.76657 °/min
Orbital period
95.58 mins
BSTAR
-0.00019409
Loading maneuver chart data...
Computing Atmospheric mass density...
Loading historical data...
Loading historical data...
Loading historical data...
Loading historical data...
Loading historical data...
Loading historical data...
Loading historical data...

Documentation

Showing up to 5 results
|